Flag for Australia Weather past 2 weeks in Perth, Western Australia, Australia

Now
52 °F

Partly sunny.


Feels Like: 50 °F
Forecast: 56 / 66 °F
Wind: 6 mph from North

Location: Belmont Perth Airport

Current Time: Jul 4, 2015 at 7:16:57 AM

Latest Report: Jul 4, 2015 at 7:00 AM


Visibility: N/A

Pressure: 30.18 "Hg

Humidity: 100%

Dew point: 52 °F

Location of PerthLocation

Historic Weather in Perth — Graph

°F

Perth temperature yesterday

Maximum temperature yesterday: 72 °F (at 2:30 PM)
Minimum temperature yesterday: 52 °F (at 11:00 PM)
Average temperature yesterday: 60 °F

Past Weeks' High & Low Weather Summary

 TemperatureHumidityPressure
High73 °F (Jun 19, 3:00 PM)100% (Jun 19, 6:00 AM)30.45 "Hg (Jun 19, 6:00 AM)
Low36 °F (Jun 23, 5:00 AM)25% (Jun 30, 2:00 PM)29.71 "Hg (Jun 21, 5:00 AM)
Average57 °F74%30.20 "Hg
* Reported Jun 19 6:00 AM — Jul 4 6:30 AM, Perth, Weather by CustomWeather, © 2015

Note: Actual official high and low records may vary slightly from our data, if they occured in-between our weather recording intervals... More about our weather records

Advertising

Perth weather history for previous 24 hours

 ConditionsComfort  
Time TempWeatherWind HumidityBarometerVisibility
6:30 AM
Sat, Jul 4
52 °FPartly sunny.6 mph100%30.18 "HgN/A
6:00 AM52 °FPassing clouds.7 mph100%30.18 "HgN/A
5:30 AM52 °FPassing clouds.7 mph100%30.18 "HgN/A
5:00 AM54 °FFog.6 mph94%30.18 "Hg1 mi
4:30 AM55 °FFog.5 mph94%30.18 "Hg0 mi
4:00 AM54 °FFog.6 mph100%30.18 "Hg1 mi
3:00 AM54 °FFog.6 mph100%30.18 "Hg1 mi
2:30 AM54 °FFog.7 mph100%30.18 "Hg1 mi
2:00 AM54 °FFog.6 mph100%30.18 "Hg1 mi
1:00 AM54 °FPassing clouds.6 mph94%30.21 "HgN/A
12:30 AM52 °FPassing clouds.6 mph100%30.21 "HgN/A
12:00 AM52 °FPassing clouds.5 mph100%30.21 "HgN/A
11:30 PM
Fri, Jul 3
52 °FPassing clouds.5 mph100%30.21 "HgN/A
11:00 PM52 °FPassing clouds.5 mph94%30.21 "HgN/A
10:30 PM54 °FPassing clouds.3 mph100%30.21 "HgN/A
10:00 PM54 °FPassing clouds.6 mph100%30.21 "HgN/A
9:30 PM54 °FPassing clouds.5 mph100%30.21 "HgN/A
9:00 PM55 °FPassing clouds.5 mph94%30.21 "HgN/A
8:30 PM55 °FPassing clouds.1 mph94%30.21 "HgN/A
8:00 PM55 °FPassing clouds.5 mph100%30.21 "HgN/A
7:30 PM57 °FPassing clouds.1 mph94%30.21 "HgN/A
7:00 PM61 °FPassing clouds.5 mph88%30.21 "HgN/A
6:30 PM64 °FPassing clouds.6 mph83%30.18 "HgN/A
6:00 PM64 °FPassing clouds.6 mph83%30.18 "HgN/A
5:30 PM66 °FPassing clouds.8 mph73%30.18 "HgN/A
5:00 PM66 °FPassing clouds.8 mph73%30.18 "HgN/A
4:30 PM68 °FPassing clouds.10 mph69%30.18 "HgN/A
4:00 PM68 °FPassing clouds.10 mph69%30.15 "HgN/A
3:30 PM70 °FPassing clouds.12 mph64%30.15 "HgN/A
3:00 PM70 °FPassing clouds.10 mph64%30.15 "HgN/A
2:30 PM72 °FPassing clouds.9 mph61%30.15 "HgN/A
1:30 PM68 °FScattered clouds.7 mph73%30.15 "HgN/A
1:00 PM70 °FScattered clouds.6 mph69%30.15 "HgN/A
12:30 PM68 °FPartly sunny.5 mph73%30.18 "HgN/A
11:30 AM66 °FScattered clouds.3 mph83%30.18 "HgN/A
11:00 AM64 °FSprinkles. Scattered clouds.6 mph88%30.21 "HgN/A
10:30 AM64 °FBroken clouds.6 mph88%30.21 "HgN/A
10:00 AM63 °FScattered clouds.7 mph88%30.21 "HgN/A
9:30 AM61 °FPartly sunny.6 mph94%30.21 "HgN/A
9:00 AM61 °FPartly sunny.6 mph94%30.18 "HgN/A
8:30 AM59 °FPartly sunny.5 mph100%30.18 "HgN/A
8:00 AM57 °FPartly sunny.5 mph100%30.18 "HgN/A
7:30 AM55 °FSleet. Partly sunny.6 mph100%30.18 "HgN/A
7:00 AM57 °FBroken clouds.6 mph94%30.18 "Hg5 mi
Weather by CustomWeather, © 2015

See weather overviewHow to use our weather pages